Year,Month,Day,Hour,Minute,Value (Times are PST for barometer in hPa)
2016,02,07,00,01,1049.98
2016,02,07,03,38,1049.98
2016,02,07,03,39,1049.92
2016,02,07,03,40,1049.98
2016,02,07,03,41,1049.98
2016,02,07,03,43,1049.95
2016,02,07,03,44,1049.92
2016,02,07,03,45,1049.95
2016,02,07,03,46,1049.92
2016,02,07,03,47,1049.95
2016,02,07,03,48,1049.98
2016,02,07,03,49,1049.98
2016,02,07,03,55,1049.98
2016,02,07,03,56,1049.98
2016,02,07,03,57,1049.92
2016,02,07,03,58,1049.92
2016,02,07,03,59,1049.92
2016,02,07,04,00,1049.92
2016,02,07,04,01,1049.92
2016,02,07,04,02,1049.88
2016,02,07,04,03,1049.85
2016,02,07,04,04,1049.85
2016,02,07,04,05,1049.78
2016,02,07,04,06,1049.71
2016,02,07,04,07,1049.65
2016,02,07,04,08,1049.58
2016,02,07,04,09,1049.58
2016,02,07,04,10,1049.51
2016,02,07,04,11,1049.58
2016,02,07,04,12,1049.54
2016,02,07,04,13,1049.54
2016,02,07,04,14,1049.51
2016,02,07,04,15,1049.48
2016,02,07,04,16,1049.48
2016,02,07,04,17,1049.41
2016,02,07,04,18,1049.44
2016,02,07,04,19,1049.51
2016,02,07,04,20,1049.48
2016,02,07,04,21,1049.58
2016,02,07,04,22,1049.54
2016,02,07,04,23,1049.65
2016,02,07,04,24,1049.65
2016,02,07,04,25,1049.65
2016,02,07,04,26,1049.58
2016,02,07,04,27,1049.51
2016,02,07,04,28,1049.44
2016,02,07,04,29,1049.37
2016,02,07,04,30,1049.31
2016,02,07,04,31,1049.27
2016,02,07,04,32,1049.24
2016,02,07,04,33,1049.17
2016,02,07,04,34,1049.17
2016,02,07,04,35,1049.17
2016,02,07,04,36,1049.10
2016,02,07,04,37,1049.14
2016,02,07,04,38,1049.07
2016,02,07,04,39,1049.10
2016,02,07,04,40,1049.10
2016,02,07,04,41,1049.14
2016,02,07,04,42,1049.17
2016,02,07,04,43,1049.10
2016,02,07,04,44,1049.17
2016,02,07,04,45,1049.24
2016,02,07,04,46,1049.31
2016,02,07,04,47,1049.41
2016,02,07,04,48,1049.51
2016,02,07,04,49,1049.54
2016,02,07,04,50,1049.54
2016,02,07,04,51,1049.65
2016,02,07,04,52,1049.75
2016,02,07,04,53,1049.88
2016,02,07,04,54,1049.95
2016,02,07,04,57,1049.98
